Location: Dunedin
(45.8670°S, 170.5000°E)
Time: 00:08:30
(UTC+13:00)

Mayak - Pass Details

Date: 24 January 2019
Orbit: 582 x 604 km, 97.6° (Epoch: 20 February)

Event Time Altitude Azimuth Distance (km) Brightness Sun altitude
Exits shadow 22:46:22 16° 75° (ENE) 1,598 0.5 -12.8°
Maximum altitude 22:48:31 23° 115° (ESE) 1,295 0.3 -13.0°
Drops below altitude 10° 22:51:51 10° 166° (SSE) 1,954 1.9 -13.4°
Sets 22:54:23 0° 180° (S) 2,869 3.1 -13.7°
